EW1922 Weather Reports


Display with metric or nautical units.
time (UTC)temp
F
wind
direction
speed
MPH
gust
MPH
rain 1hr
in
rain 24hr
in
rain mn
in
humidity
%
barometer
mb
20260503040100 66 359 2.0 11.0 0.00 0.00 0.00 35 1008.5
20260503034559 67 359 1.0 8.0 0.00 0.00 0.00 33 1008.2
20260503033053 67 359 5.0 10.0 0.00 0.00 0.00 31 1008.0
20260503031551 67 359 5.0 9.0 0.00 0.00 0.00 32 1007.9
20260503030118 68 359 4.0 9.0 0.00 0.00 0.00 30 1008.0
20260503024549 68 359 3.0 5.0 0.00 0.00 0.00 30 1007.6
20260503023048 69 359 1.0 6.0 0.00 0.00 0.00 29 1007.2
20260503021552 69 359 1.0 8.0 0.00 0.00 0.00 27 1006.9
20260503020048 70 359 2.0 6.0 0.00 0.00 0.00 25 1006.8
20260503014601 70 359 2.0 4.0 0.00 0.00 0.00 26 1006.9
20260503013051 70 359 2.0 5.0 0.00 0.00 0.00 26 1006.9
20260503011553 69 359 1.0 4.0 0.00 0.00 0.00 28 1007.2
20260503010053 69 359 3.0 10.0 0.00 0.00 0.00 29 1007.6
20260503004545 68 359 2.0 12.0 0.00 0.00 0.00 31 1007.8
20260503003054 69 359 10.0 16.0 0.00 0.00 0.00 30 1007.6
20260503001543 70 359 3.0 9.0 0.00 0.00 0.00 26 1007.3
20260503000047 69 359 5.0 13.0 0.00 0.00 0.00 29 1007.1
20260502234542 70 359 8.0 14.0 0.00 0.00 0.00 31 1007.2
20260502233042 69 359 5.0 18.0 0.00 0.00 0.00 26 1008.1
20260502231541 71 359 8.0 16.0 0.00 0.00 0.00 24 1007.7
20260502230041 71 359 5.0 10.0 0.00 0.00 0.00 24 1007.3
20260502224540 70 359 5.0 11.0 0.00 0.00 0.00 29 1007.3
20260502223039 69 359 12.0 37.0 0.00 0.00 0.00 29 1008.2
20260502221537 76 232 6.0 13.0 0.00 0.00 0.00 16 1007.3
20260502220040 77 278 3.0 9.0 0.00 0.00 0.00 15 1007.3
20260502214536 76 148 5.0 13.0 0.00 0.00 0.00 15 1007.5
20260502213041 77 143 7.0 14.0 0.00 0.00 0.00 15 1007.7
20260502211532 77 227 3.0 6.0 0.00 0.00 0.00 15 1007.8
20260502210026 77 273 1.0 6.0 0.00 0.00 0.00 15 1008.0
20260502204523 76 125 3.0 13.0 0.00 0.00 0.00 15 1008.3
20260502203020 76 52 4.0 10.0 0.00 0.00 0.00 15 1008.3
20260502201524 75 95 7.0 14.0 0.00 0.00 0.00 15 1008.7
20260502200014 76 66 6.0 12.0 0.00 0.00 0.00 13 1008.8
20260502194512 75 83 7.0 13.0 0.00 0.00 0.00 14 1009.0
20260502193008 74 170 3.0 12.0 0.00 0.00 0.00 14 1009.2
20260502191508 73 20 8.0 15.0 0.00 0.00 0.00 14 1009.4
20260502190008 74 53 7.0 11.0 0.00 0.00 0.00 13 1009.5
20260502184504 73 330 6.0 12.0 0.00 0.00 0.00 14 1009.7
20260502183002 72 158 1.0 8.0 0.00 0.00 0.00 14 1009.9
20260502181501 72 93 3.0 9.0 0.00 0.00 0.00 14 1010.1
20260502163039 63 359 0.0 2.0 0.00 0.00 0.00 20 1010.9
20260502161540 62 147 1.0 2.0 0.00 0.00 0.00 20 1010.9
20260502151526 57 359 0.0 3.0 0.00 0.00 0.00 25 1010.9
20260502123015 51 59 0.0 2.0 0.00 0.00 0.00 21 1010.0
20260502121515 49 59 1.0 2.0 0.00 0.00 0.00 22 1010.1
20260502114513 49 59 0.0 0.0 0.00 0.00 0.00 21 1010.1
20260502113011 49 59 0.0 0.0 0.00 0.00 0.00 22 1010.1
20260502111510 50 59 0.0 1.0 0.00 0.00 0.00 22 1010.2
20260502110010 50 59 0.0 2.0 0.00 0.00 0.00 21 1010.0
20260502104509 50 60 1.0 3.0 0.00 0.00 0.00 20 1010.0
20260502103016 50 12 0.0 0.0 0.00 0.00 0.00 20 1010.0
20260502101506 50 14 0.0 3.0 0.00 0.00 0.00 19 1009.9
20260502070038 58 359 1.0 3.0 0.00 0.00 0.00 15 1010.7
20260502064552 58 359 0.0 0.0 0.00 0.00 0.00 15 1010.8
20260502063038 58 359 0.0 2.0 0.00 0.00 0.00 14 1010.7
20260502061535 59 359 1.0 2.0 0.00 0.00 0.00 14 1010.7
20260502060038 61 359 0.0 2.0 0.00 0.00 0.00 13 1010.7
20260502054538 63 359 1.0 2.0 0.00 0.00 0.00 12 1010.7
20260502053037 63 359 1.0 4.0 0.00 0.00 0.00 13 1010.7
20260502051539 63 359 0.0 3.0 0.00 0.00 0.00 12 1010.7
20260502050039 63 359 3.0 6.0 0.00 0.00 0.00 11 1010.6
20260502044538 64 47 4.0 8.0 0.00 0.00 0.00 12 1010.5
20260502043032 65 46 5.0 8.0 0.00 0.00 0.00 12 1010.5
20260502041534 65 359 4.0 8.0 0.00 0.00 0.00 11 1010.3